Terminal Aerodrome Forecast
Issued by NWS

Home | Current Version | Previous Version | Text Only | Print | Product List | Glossary On
Versions: 1 2 3 4 5 6 7 8 9 10 11 12 13 14 15 16 17
000
FTUS44 KLZK 190500
TAFADF
TAF
KADF 190526Z 1906/2006 VRB03KT P6SM OVC012
      TEMPO 1906/1908 2SM BR BKN007
     FM190800 VRB03KT 4SM BR OVC007
      TEMPO 1910/1914 1SM BR OVC012
     FM191600 22004KT P6SM BKN020
     FM191700 23007KT P6SM VCTS SCT020CB BKN250
     FM200100 27006KT 5SM TSRA BKN025CB OVC070=

USA.gov is the U.S. government's official web portal to all federal, state and local government web resources and services.